Time,TemperatureF,DewpointF,PressureIn,WindDirection,WindDirectionDegrees,WindSpeedMPH,WindSpeedGustMPH,Humidity,HourlyPrecipIn,Conditions,Clouds,dailyrainin,SoftwareType,DateUTC
2013-02-11 00:02:00,33.0,19.0,-100.00,WNW,295,26.0,32.0,56,0.00,,,-99.99,,2013-02-11 06:02:00,
2013-02-11 00:11:00,32.0,18.0,-100.00,WNW,300,19.0,34.0,54,0.00,,,-99.99,,2013-02-11 06:11:00,
2013-02-11 00:21:00,32.0,18.0,-100.00,West,275,22.0,34.0,55,0.00,,,-99.99,,2013-02-11 06:21:00,
2013-02-11 00:32:00,32.0,19.0,-100.00,West,280,20.0,28.0,56,0.00,,,-99.99,,2013-02-11 06:32:00,
2013-02-11 00:42:00,32.0,19.0,-100.00,West,280,11.0,21.0,58,0.00,,,-99.99,,2013-02-11 06:42:00,
2013-02-11 00:51:00,32.0,18.0,-100.00,WNW,290,20.0,33.0,55,0.00,,,-99.99,,2013-02-11 06:51:00,
2013-02-11 01:01:00,32.0,18.0,-100.00,WNW,290,20.0,33.0,55,0.00,,,-99.99,,2013-02-11 07:01:00,
2013-02-11 01:11:00,32.0,18.0,-100.00,West,280,23.0,32.0,54,0.18,,,-99.99,,2013-02-11 07:11:00,
2013-02-11 01:21:00,32.0,18.0,-100.00,West,275,21.0,32.0,54,0.00,,,-99.99,,2013-02-11 07:21:00,
2013-02-11 01:32:00,32.0,18.0,-100.00,West,280,17.0,32.0,55,0.00,,,-99.99,,2013-02-11 07:32:00,
2013-02-11 01:41:00,32.0,18.0,-100.00,WNW,290,21.0,37.0,54,0.00,,,-99.99,,2013-02-11 07:41:00,
2013-02-11 01:52:00,32.0,18.0,-100.00,WNW,285,23.0,35.0,55,0.16,,,-99.99,,2013-02-11 07:52:00,
2013-02-11 02:01:00,32.0,18.0,-100.00,WNW,285,23.0,35.0,55,0.16,,,-99.99,,2013-02-11 08:01:00,
2013-02-11 02:11:00,32.0,18.0,-100.00,WNW,285,23.0,31.0,55,0.00,,,-99.99,,2013-02-11 08:11:00,
2013-02-11 02:21:00,32.0,18.0,-100.00,West,275,19.0,39.0,55,0.00,,,-99.99,,2013-02-11 08:21:00,
2013-02-11 02:31:00,31.0,18.0,-100.00,West,275,22.0,32.0,55,0.00,,,-99.99,,2013-02-11 08:31:00,
2013-02-11 02:42:00,31.0,17.0,-100.00,WNW,285,19.0,37.0,54,0.00,,,-99.99,,2013-02-11 08:42:00,
2013-02-11 02:52:00,31.0,17.0,-100.00,WNW,285,18.0,28.0,55,0.00,,,-99.99,,2013-02-11 08:52:00,
2013-02-11 03:01:00,31.0,17.0,-100.00,WNW,285,18.0,28.0,55,0.00,,,-99.99,,2013-02-11 09:01:00,
2013-02-11 03:12:00,31.0,17.0,-100.00,WNW,285,18.0,32.0,54,0.00,,,-99.99,,2013-02-11 09:12:00,
2013-02-11 03:21:00,31.0,17.0,-100.00,West,280,17.0,32.0,55,0.00,,,-99.99,,2013-02-11 09:21:00,
2013-02-11 03:32:00,31.0,17.0,-100.00,WNW,300,24.0,31.0,56,0.00,,,-99.99,,2013-02-11 09:32:00,
2013-02-11 03:41:00,31.0,17.0,-100.00,WNW,300,18.0,29.0,57,0.00,,,-99.99,,2013-02-11 09:41:00,
2013-02-11 03:51:00,30.0,18.0,-100.00,West,280,17.0,29.0,58,0.00,,,-99.99,,2013-02-11 09:51:00,
2013-02-11 04:01:00,30.0,18.0,-100.00,West,280,17.0,29.0,58,0.00,,,-99.99,,2013-02-11 10:01:00,
2013-02-11 04:11:00,30.0,17.0,-100.00,WNW,290,16.0,27.0,58,0.00,,,-99.99,,2013-02-11 10:11:00,
2013-02-11 04:21:00,30.0,17.0,-100.00,WNW,295,14.0,26.0,59,0.00,,,-99.99,,2013-02-11 10:21:00,
2013-02-11 04:31:00,30.0,18.0,-100.00,WNW,290,12.0,24.0,60,0.00,,,-99.99,,2013-02-11 10:31:00,
2013-02-11 04:41:00,30.0,18.0,-100.00,WNW,290,16.0,28.0,60,0.00,,,-99.99,,2013-02-11 10:41:00,
2013-02-11 04:51:00,30.0,18.0,-100.00,WNW,285,17.0,25.0,61,0.00,,,-99.99,,2013-02-11 10:51:00,
2013-02-11 05:01:00,30.0,18.0,-100.00,WNW,285,17.0,25.0,61,0.00,,,-99.99,,2013-02-11 11:01:00,
2013-02-11 05:11:00,30.0,19.0,-100.00,WNW,290,17.0,27.0,61,0.00,,,-99.99,,2013-02-11 11:11:00,
2013-02-11 05:22:00,30.0,19.0,-100.00,WNW,285,16.0,26.0,62,0.00,,,-99.99,,2013-02-11 11:22:00,
2013-02-11 05:32:00,30.0,19.0,-100.00,West,280,16.0,28.0,63,0.00,,,-99.99,,2013-02-11 11:32:00,
2013-02-11 05:42:00,30.0,19.0,-100.00,WNW,295,14.0,30.0,62,0.00,,,-99.99,,2013-02-11 11:42:00,
2013-02-11 05:52:00,30.0,20.0,-100.00,WNW,300,17.0,24.0,64,0.00,,,-99.99,,2013-02-11 11:52:00,
2013-02-11 06:03:00,30.0,20.0,-100.00,WNW,300,17.0,24.0,64,0.00,,,-99.99,,2013-02-11 12:03:00,
2013-02-11 06:12:00,30.0,18.0,-100.00,WNW,300,17.0,28.0,61,0.00,,,-99.99,,2013-02-11 12:12:00,
2013-02-11 06:22:00,30.0,18.0,-100.00,WNW,300,17.0,24.0,61,0.00,,,-99.99,,2013-02-11 12:22:00,
2013-02-11 06:32:00,30.0,19.0,-100.00,WNW,285,11.0,26.0,63,0.00,,,-99.99,,2013-02-11 12:32:00,
2013-02-11 06:42:00,30.0,19.0,-100.00,WNW,285,17.0,30.0,63,0.00,,,-99.99,,2013-02-11 12:42:00,
2013-02-11 06:52:00,29.0,19.0,-100.00,WNW,285,14.0,29.0,63,0.00,,,-99.99,,2013-02-11 12:52:00,
2013-02-11 07:02:00,29.0,19.0,-100.00,WNW,285,14.0,29.0,63,0.00,,,-99.99,,2013-02-11 13:02:00,
2013-02-11 07:11:00,29.0,19.0,-100.00,West,275,16.0,23.0,65,0.00,,,-99.99,,2013-02-11 13:11:00,
2013-02-11 07:22:00,29.0,19.0,-100.00,West,280,21.0,26.0,64,0.00,,,-99.99,,2013-02-11 13:22:00,
2013-02-11 07:32:00,29.0,19.0,-100.00,WNW,295,14.0,27.0,64,0.00,,,-99.99,,2013-02-11 13:32:00,
2013-02-11 07:42:00,29.0,18.0,-100.00,West,280,17.0,28.0,64,0.00,,,-99.99,,2013-02-11 13:42:00,
2013-02-11 07:52:00,29.0,19.0,-100.00,WNW,295,12.0,22.0,65,0.00,,,-99.99,,2013-02-11 13:52:00,
2013-02-11 08:01:00,29.0,19.0,-100.00,WNW,295,12.0,22.0,65,0.00,,,-99.99,,2013-02-11 14:01:00,
2013-02-11 08:11:00,29.0,19.0,-100.00,WNW,285,14.0,27.0,64,0.00,,,-99.99,,2013-02-11 14:11:00,
2013-02-11 08:21:00,29.0,19.0,-100.00,WNW,290,18.0,31.0,63,0.00,,,-99.99,,2013-02-11 14:21:00,
2013-02-11 08:32:00,29.0,18.0,-100.00,WNW,290,15.0,30.0,63,0.00,,,-99.99,,2013-02-11 14:32:00,
2013-02-11 08:42:00,29.0,18.0,-100.00,WNW,285,14.0,27.0,63,0.00,,,-99.99,,2013-02-11 14:42:00,
2013-02-11 08:52:00,29.0,18.0,-100.00,WNW,300,19.0,27.0,62,0.00,,,-99.99,,2013-02-11 14:52:00,
2013-02-11 09:02:00,30.0,18.0,-100.00,WNW,295,17.0,26.0,62,0.00,,,-99.99,,2013-02-11 15:02:00,
2013-02-11 09:11:00,30.0,18.0,-100.00,WNW,285,13.0,26.0,61,0.00,,,-99.99,,2013-02-11 15:11:00,
2013-02-11 09:22:00,30.0,19.0,-100.00,WNW,295,16.0,24.0,61,0.00,,,-99.99,,2013-02-11 15:22:00,
2013-02-11 09:32:00,30.0,19.0,-100.00,WNW,285,12.0,24.0,61,0.00,,,-99.99,,2013-02-11 15:32:00,
2013-02-11 09:42:00,30.0,19.0,-100.00,WNW,285,15.0,27.0,61,0.00,,,-99.99,,2013-02-11 15:42:00,
2013-02-11 09:52:00,31.0,19.0,-100.00,West,280,12.0,29.0,59,0.00,,,-99.99,,2013-02-11 15:52:00,
2013-02-11 10:02:00,31.0,19.0,-100.00,West,280,12.0,29.0,59,0.00,,,-99.99,,2013-02-11 16:02:00,
2013-02-11 10:11:00,31.0,19.0,-100.00,West,270,17.0,26.0,59,0.00,,,-99.99,,2013-02-11 16:11:00,
2013-02-11 10:22:00,32.0,18.0,-100.00,NW,305,17.0,30.0,57,0.00,,,-99.99,,2013-02-11 16:22:00,
2013-02-11 10:32:00,32.0,18.0,-100.00,WNW,295,18.0,29.0,57,0.00,,,-99.99,,2013-02-11 16:32:00,
2013-02-11 10:42:00,32.0,19.0,-100.00,West,280,17.0,27.0,56,0.00,,,-99.99,,2013-02-11 16:42:00,
2013-02-11 10:52:00,33.0,19.0,-100.00,NW,305,21.0,32.0,57,0.00,,,-99.99,,2013-02-11 16:52:00,
2013-02-11 11:01:00,33.0,19.0,-100.00,West,280,16.0,32.0,56,0.00,,,-99.99,,2013-02-11 17:01:00,
2013-02-11 11:11:00,33.0,19.0,-100.00,WNW,295,20.0,32.0,55,0.00,,,-99.99,,2013-02-11 17:11:00,
2013-02-11 11:21:00,33.0,19.0,-100.00,WNW,300,21.0,28.0,55,0.00,,,-99.99,,2013-02-11 17:21:00,
2013-02-11 11:32:00,35.0,20.0,-100.00,WNW,295,14.0,24.0,55,0.00,,,-99.99,,2013-02-11 17:32:00,
2013-02-11 11:42:00,34.0,20.0,-100.00,WNW,295,12.0,27.0,55,0.00,,,-99.99,,2013-02-11 17:42:00,
2013-02-11 11:52:00,34.0,20.0,-100.00,West,275,19.0,24.0,55,0.00,,,-99.99,,2013-02-11 17:52:00,
2013-02-11 12:02:00,35.0,20.0,-100.00,WNW,285,15.0,24.0,55,0.00,,,-99.99,,2013-02-11 18:02:00,
2013-02-11 12:11:00,35.0,20.0,-100.00,West,270,20.0,26.0,55,0.00,,,-99.99,,2013-02-11 18:11:00,
2013-02-11 12:21:00,35.0,20.0,-100.00,NW,305,15.0,24.0,54,0.00,,,-99.99,,2013-02-11 18:21:00,
2013-02-11 12:32:00,35.0,20.0,-100.00,WNW,295,19.0,27.0,54,0.00,,,-99.99,,2013-02-11 18:32:00,
2013-02-11 12:42:00,36.0,20.0,-100.00,WNW,300,15.0,25.0,52,0.00,,,-99.99,,2013-02-11 18:42:00,
2013-02-11 12:52:00,35.0,20.0,-100.00,WNW,295,14.0,26.0,53,0.00,,,-99.99,,2013-02-11 18:52:00,
2013-02-11 13:02:00,35.0,20.0,-100.00,WNW,295,14.0,26.0,53,0.00,,,-99.99,,2013-02-11 19:02:00,
2013-02-11 13:11:00,36.0,20.0,-100.00,WNW,300,15.0,26.0,51,0.00,,,-99.99,,2013-02-11 19:11:00,
2013-02-11 13:21:00,35.0,19.0,-100.00,WNW,295,15.0,23.0,51,0.00,,,-99.99,,2013-02-11 19:21:00,
2013-02-11 13:32:00,36.0,20.0,-100.00,WNW,295,16.0,27.0,51,0.00,,,-99.99,,2013-02-11 19:32:00,
2013-02-11 13:41:00,37.0,20.0,-100.00,West,265,15.0,24.0,51,0.00,,,-99.99,,2013-02-11 19:41:00,
2013-02-11 13:51:00,37.0,20.0,-100.00,WNW,285,17.0,26.0,50,0.00,,,-99.99,,2013-02-11 19:51:00,
2013-02-11 14:01:00,37.0,20.0,-100.00,WNW,285,17.0,26.0,50,0.00,,,-99.99,,2013-02-11 20:01:00,
2013-02-11 14:11:00,36.0,20.0,-100.00,NW,310,17.0,26.0,51,0.00,,,-99.99,,2013-02-11 20:11:00,
2013-02-11 14:21:00,36.0,20.0,-100.00,WNW,290,14.0,26.0,51,0.00,,,-99.99,,2013-02-11 20:21:00,
2013-02-11 14:32:00,38.0,21.0,-100.00,WNW,285,14.0,22.0,50,0.00,,,-99.99,,2013-02-11 20:32:00,
2013-02-11 14:42:00,36.0,20.0,-100.00,NW,305,15.0,22.0,51,0.00,,,-99.99,,2013-02-11 20:42:00,
2013-02-11 14:52:00,37.0,20.0,-100.00,WNW,300,17.0,24.0,49,0.00,,,-99.99,,2013-02-11 20:52:00,
2013-02-11 15:02:00,37.0,20.0,-100.00,WNW,300,17.0,24.0,49,0.00,,,-99.99,,2013-02-11 21:02:00,
2013-02-11 15:11:00,37.0,20.0,-100.00,WNW,295,13.0,21.0,49,0.00,,,-99.99,,2013-02-11 21:11:00,
2013-02-11 15:21:00,38.0,21.0,-100.00,West,280,12.0,22.0,49,0.00,,,-99.99,,2013-02-11 21:21:00,
2013-02-11 15:32:00,38.0,21.0,-100.00,WNW,285,12.0,26.0,49,0.00,,,-99.99,,2013-02-11 21:32:00,
2013-02-11 15:41:00,37.0,20.0,-100.00,NW,325,13.0,22.0,49,0.00,,,-99.99,,2013-02-11 21:41:00,
2013-02-11 15:51:00,37.0,20.0,-100.00,NW,305,14.0,20.0,50,0.00,,,-99.99,,2013-02-11 21:51:00,
2013-02-11 16:01:00,37.0,20.0,-100.00,NW,305,14.0,20.0,50,0.00,,,-99.99,,2013-02-11 22:01:00,
2013-02-11 16:11:00,36.0,20.0,-100.00,NW,305,15.0,21.0,51,0.00,,,-99.99,,2013-02-11 22:11:00,
2013-02-11 16:21:00,36.0,20.0,-100.00,WNW,300,12.0,20.0,51,0.00,,,-99.99,,2013-02-11 22:21:00,
2013-02-11 16:32:00,36.0,21.0,-100.00,NW,305,11.0,17.0,52,0.00,,,-99.99,,2013-02-11 22:32:00,
2013-02-11 16:42:00,36.0,20.0,-100.00,NW,320,9.0,16.0,52,0.00,,,-99.99,,2013-02-11 22:42:00,
2013-02-11 16:52:00,36.0,20.0,-100.00,NW,325,11.0,18.0,53,0.00,,,-99.99,,2013-02-11 22:52:00,
2013-02-11 17:02:00,36.0,20.0,-100.00,NW,325,11.0,18.0,53,0.00,,,-99.99,,2013-02-11 23:02:00,
2013-02-11 17:11:00,35.0,20.0,-100.00,NW,315,12.0,18.0,53,0.00,,,-99.99,,2013-02-11 23:11:00,
2013-02-11 17:21:00,35.0,21.0,-100.00,NW,320,9.0,16.0,55,0.00,,,-99.99,,2013-02-11 23:21:00,
2013-02-11 17:32:00,35.0,20.0,-100.00,NW,315,9.0,16.0,55,0.00,,,-99.99,,2013-02-11 23:32:00,
2013-02-11 17:41:00,34.0,20.0,-100.00,NW,325,7.0,10.0,57,0.00,,,-99.99,,2013-02-11 23:41:00,
2013-02-11 17:52:00,33.0,20.0,-100.00,NW,315,6.0,9.0,59,0.00,,,-99.99,,2013-02-11 23:52:00,
2013-02-11 18:01:00,33.0,20.0,-100.00,NW,315,6.0,9.0,59,0.00,,,-99.99,,2013-02-12 00:01:00,
2013-02-11 18:11:00,33.0,21.0,-100.00,NW,315,7.0,9.0,61,0.00,,,-99.99,,2013-02-12 00:11:00,
2013-02-11 18:22:00,33.0,21.0,-100.00,NW,310,9.0,12.0,61,0.00,,,-99.99,,2013-02-12 00:22:00,
2013-02-11 18:32:00,32.0,21.0,-100.00,NW,325,7.0,12.0,61,0.00,,,-99.99,,2013-02-12 00:32:00,
2013-02-11 18:42:00,32.0,21.0,-100.00,NNW,340,5.0,9.0,63,0.00,,,-99.99,,2013-02-12 00:42:00,
2013-02-11 18:52:00,31.0,21.0,-100.00,NNW,330,4.0,9.0,65,0.00,,,-99.99,,2013-02-12 00:52:00,
2013-02-11 19:02:00,31.0,21.0,-100.00,NNW,330,4.0,9.0,65,0.00,,,-99.99,,2013-02-12 01:02:00,
2013-02-11 19:11:00,30.0,21.0,-100.00,NNW,345,4.0,9.0,67,0.00,,,-99.99,,2013-02-12 01:11:00,
2013-02-11 19:21:00,30.0,21.0,-100.00,NNW,340,6.0,9.0,68,0.00,,,-99.99,,2013-02-12 01:21:00,
2013-02-11 19:32:00,30.0,20.0,-100.00,NW,320,7.0,9.0,68,0.00,,,-99.99,,2013-02-12 01:32:00,
2013-02-11 19:42:00,29.0,21.0,-100.00,NW,315,6.0,11.0,69,0.00,,,-99.99,,2013-02-12 01:42:00,
2013-02-11 19:51:00,29.0,21.0,-100.00,NW,315,6.0,9.0,70,0.00,,,-99.99,,2013-02-12 01:51:00,
2013-02-11 20:01:00,29.0,21.0,-100.00,NW,315,6.0,9.0,70,0.00,,,-99.99,,2013-02-12 02:01:00,
2013-02-11 20:11:00,29.0,20.0,-100.00,NW,325,7.0,11.0,71,0.00,,,-99.99,,2013-02-12 02:11:00,
2013-02-11 20:21:00,28.0,20.0,-100.00,NW,320,6.0,11.0,71,0.00,,,-99.99,,2013-02-12 02:21:00,
2013-02-11 20:31:00,28.0,20.0,-100.00,NNW,330,6.0,8.0,72,0.00,,,-99.99,,2013-02-12 02:31:00,
2013-02-11 20:41:00,28.0,20.0,-100.00,NW,325,4.0,9.0,73,0.00,,,-99.99,,2013-02-12 02:41:00,
2013-02-11 20:52:00,27.0,20.0,-100.00,NW,325,4.0,8.0,74,0.00,,,-99.99,,2013-02-12 02:52:00,
2013-02-11 21:02:00,27.0,20.0,-100.00,NW,325,4.0,8.0,74,0.00,,,-99.99,,2013-02-12 03:02:00,
2013-02-11 21:11:00,27.0,20.0,-100.00,NNW,340,4.0,7.0,75,0.00,,,-99.99,,2013-02-12 03:11:00,
2013-02-11 21:21:00,27.0,20.0,-100.00,NNW,345,4.0,6.0,76,0.00,,,-99.99,,2013-02-12 03:21:00,
2013-02-11 21:31:00,26.0,20.0,-100.00,NNW,340,4.0,7.0,77,0.00,,,-99.99,,2013-02-12 03:31:00,
2013-02-11 21:41:00,26.0,20.0,-100.00,NNW,340,4.0,6.0,78,0.00,,,-99.99,,2013-02-12 03:41:00,
2013-02-11 21:51:00,27.0,21.0,-100.00,NW,320,5.0,8.0,78,0.00,,,-99.99,,2013-02-12 03:51:00,
2013-02-11 22:01:00,27.0,21.0,-100.00,NW,320,5.0,8.0,78,0.00,,,-99.99,,2013-02-12 04:01:00,
2013-02-11 22:11:00,26.0,20.0,-100.00,NW,310,2.0,5.0,78,0.00,,,-99.99,,2013-02-12 04:11:00,
2013-02-11 22:21:00,26.0,20.0,-100.00,West,280,2.0,4.0,79,0.00,,,-99.99,,2013-02-12 04:21:00,
2013-02-11 22:31:00,26.0,21.0,-100.00,WNW,300,4.0,5.0,80,0.00,,,-99.99,,2013-02-12 04:31:00,
2013-02-11 22:41:00,26.0,20.0,-100.00,NW,305,1.0,4.0,80,0.00,,,-99.99,,2013-02-12 04:41:00,
2013-02-11 22:51:00,25.0,20.0,-100.00,WNW,295,2.0,4.0,81,0.00,,,-99.99,,2013-02-12 04:51:00,
2013-02-11 23:01:00,25.0,20.0,-100.00,WNW,295,2.0,4.0,81,0.00,,,-99.99,,2013-02-12 05:01:00,
2013-02-11 23:11:00,24.0,20.0,-100.00,SW,230,1.0,2.0,82,0.00,,,-99.99,,2013-02-12 05:11:00,
2013-02-11 23:21:00,24.0,19.0,-100.00,WSW,240,2.0,2.0,82,0.00,,,-99.99,,2013-02-12 05:21:00,
2013-02-11 23:31:00,24.0,20.0,-100.00,West,270,1.0,4.0,83,0.00,,,-99.99,,2013-02-12 05:31:00,
2013-02-11 23:42:00,24.0,20.0,-100.00,NW,320,0.0,1.0,84,0.00,,,-99.99,,2013-02-12 05:42:00,
2013-02-11 23:52:00,24.0,20.0,-100.00,West,270,2.0,4.0,84,0.00,,,-99.99,,2013-02-12 05:52:00,